Regional Weather Roundup
Issued by NWS

Home | Current Version | Previous Version | Graphics & Text | Print | Product List | Glossary On
Versions: 1 2 3 4 5 6 7 8 9 10 11 12 13 14 15 16 17 18 19 20 21 22 23 24 25 26 27 28 29 30 31 32 33 34 35 36 37 38 39 40 41 42 43 44 45 46 47 48 49 50
000
ASUS43 KIND 230209
RWRIN

WEATHER ROUNDUP FOR INDIANA
NATIONAL WEATHER SERVICE INDIANAPOLIS IN
1000 PM EDT TUE JUL 22 2014

NOTE: "FAIR" INDICATES FEW OR NO CLOUDS BELOW 12,000 FEET WITH NO
SIGNIFICANT WEATHER AND/OR OBSTRUCTIONS TO VISIBILITY.

* - STATION DOES NOT REPORT WEATHER SUCH AS PRECIPITATION OR FOG.

+ - STATION NOT QUALITY CONTROLLED BY THE NATIONAL WEATHER SERVICE.
    USE DATA WITH CAUTION...ESPECIALLY DEWPOINT AND RELATIVE
    HUMIDITY OBSERVATIONS.

INZ001>003-010>013-019-020-230300-
NORTHWEST INDIANA

CITY           SKY/WX    TMP DP  RH WIND       PRES   REMARKS
GARY /AIRPORT/ MOCLDY    84  73  70 SW6       29.96S
KNOX *+        MOCLDY    78  69  72 SW7       29.98S
LA PORTE +     CLOUDY    78  71  77 SW9       29.99S
MICHIGAN CITY+ MOCLDY    79  70  73 SW6       29.97S
MONTICELLO +   FAIR      78  70  78 S6        29.98F
RENSSELAER +   FAIR      75  72  88 SW5       29.99S
VALPARAISO     CLOUDY    80  71  74 SW9       29.99R

$$

LMZ046-743>745-230300-
SOUTHERN LAKE MICHIGAN

STATION/POSITION TIME  TEMP WIND        PRES
                       AIR  DIR/SP/G
                 (UTC) (F)  (DEG/KT/KT) (MB)
MICHIGAN CITY    0200   81  180/ 11/ 14   N/A

$$

INZ004-005-014>016-021>024-230300-
NORTH CENTRAL INDIANA

CITY           SKY/WX    TMP DP  RH WIND       PRES   REMARKS
GOSHEN         FAIR      80  69  69 SW8       29.98S
LOGANSPORT +   FAIR      73  68  83 S6        30.01S
PERU/GRISSOM   FAIR      76  74  94 S6        30.00F
ROCHESTER +    FAIR      81  68  65 SW3       30.00S
SOUTH BEND     CLOUDY    82  69  64 SW12      29.98R
WARSAW +       FAIR      79  70  73 SW3       30.00R

$$

INZ006>009-017-018-025>027-230300-
NORTHEAST INDIANA

CITY           SKY/WX    TMP DP  RH WIND       PRES   REMARKS
ANGOLA *+      MOCLDY    79  70  73 SW5       29.99S
AUBURN +       FAIR      79  64  61 SW3       30.00S
FORT WAYNE     MOCLDY    77  67  71 SW7       30.00F
HUNTINGTON +   MOCLDY    78  69  72 SW3       30.00S

$$

INZ028-029-035-036-043>045-051>053-230300-
WEST CENTRAL INDIANA

CITY           SKY/WX    TMP DP  RH WIND       PRES   REMARKS
GREENCASTLE +  FAIR      73  70  88 CALM      30.05F
LAFAYETTE      FAIR      77  71  82 S5        29.99S
TERRE HAUTE    FAIR      75  70  84 S8        30.02F

$$

INZ030>032-037>040-046>048-054>057-064-065-230300-
CENTRAL INDIANA

CITY           SKY/WX    TMP DP  RH WIND       PRES   REMARKS
CP ATTERBURY + FAIR      73  70  88 SW3       30.06R
COLUMBUS       CLEAR     73  72  94 CALM      30.05R
INDIANAPOLIS   FAIR      77  68  73 SW7       30.04S
-EAGLE CREEK   FAIR      78  67  68 S3        30.03F
KOKOMO *+      FAIR      79  70  73 SW8       30.01F
MARION +       FAIR      74  67  78 SW6       30.02F
MT COMFORT *+  FAIR      75  70  83 SW6       30.05S
SHELBYVILLE    FAIR      79  68  69 W5        30.04S
ZIONSVILLE +   FAIR      77  67  71 S5        30.04F

$$

INZ033-034-041-042-049-050-058-059-230300-
EAST CENTRAL INDIANA

CITY           SKY/WX    TMP DP  RH WIND       PRES   REMARKS
MUNCIE         FAIR      79  65  62 SW5       30.03F

$$

INZ060-061-067>069-081>083-085>088-230300-
SOUTHWEST INDIANA

CITY           SKY/WX    TMP DP  RH WIND       PRES   REMARKS
EVANSVILLE     FAIR      84  69  60 NW5       30.05R
HUNTINGBURG *+ FAIR      79  70  73 N3        30.06R
WASHINGTON +   FAIR      74  71  88 W5        30.05R

$$

INZ062-063-066-070>080-084-089>092-230300-
SOUTH CENTRAL AND SOUTHEAST INDIANA

CITY           SKY/WX    TMP DP  RH WIND       PRES   REMARKS
BLOOMINGTON    FAIR      75  70  84 SW3       30.06S
SEYMOUR +      FAIR      70  59  68 CALM      30.05

$$



USA.gov is the U.S. government's official web portal to all federal, state and local government web resources and services.